This demonstration page uses our WeatherBlox Daily Observations layout. Learn more.

Left ArrowRight Arrow

53.62937, 11.41316

Hourly Observations for November 19, 2020

Temp ( °F °C ) Dew Point ( °F °C ) Humidity (%) Winds ( mph kmh ) Pressure ( in mb ) Visibility ( mi km ) Precip ( " mm )
6:50 am 06:50 Mostly Clear 48 9 43 6 82 82 SW 16 26 29.83 1010 30 48 N/A
7:20 am 07:20 Mostly Clear 48 9 41 5 76 76 SW 18 30 29.83 1010 30 48 N/A
7:50 am 07:50 Mostly Clear 48 9 39 4 71 71 SSW 20 31 29.83 1010 30 48 N/A
8:20 am 08:20 Mostly Sunny 48 9 39 4 71 71 SSW 20 31 29.83 1010 30 48 N/A
8:50 am 08:50 Mostly Sunny 48 9 39 4 71 71 SSW 17 28 29.83 1010 7 11 N/A
9:20 am 09:20 Mostly Sunny 48 9 39 4 71 71 SSW 18 30 29.83 1010 7 11 N/A
9:50 am 09:50 Mostly Sunny 50 10 41 5 71 71 SSW 21 33 29.83 1010 30 48 N/A
10:20 am 10:20 Mostly Sunny 50 10 39 4 67 67 SSW 21 33 29.83 1010 30 48 N/A
10:50 am 10:50 Mostly Cloudy 50 10 41 5 71 71 SSW 24 39 29.83 1010 30 48 N/A
11:20 am 11:20 Mostly Cloudy 50 10 41 5 71 71 SSW 22 35 29.83 1010 30 48 N/A
11:50 am 11:50 Mostly Cloudy 50 10 41 5 71 71 SSW 22 35 29.80 1009 30 48 N/A
12:20 pm 12:20 Mostly Cloudy 50 10 43 6 76 76 SSW 25 41 29.83 1010 30 48 N/A
12:50 pm 12:50 Windy with Rain Showers Likely 50 10 43 6 76 76 SSW 23 37 29.80 1009 30 48 N/A
1:20 pm 13:20 Mostly Cloudy with Light Rain 48 9 45 7 87 87 SW 24 39 29.83 1010 6 9 N/A
1:50 pm 13:50 Mostly Cloudy 48 9 39 4 71 71 WSW 15 24 29.86 1011 30 48 N/A
2:20 pm 14:20 Mostly Cloudy with Showers Nearby 48 9 37 3 66 66 WSW 12 19 29.89 1012 30 48 N/A
2:50 pm 14:50 Partly Cloudy 48 9 36 2 62 62 W 12 19 29.92 1013 30 48 N/A
3:20 pm 15:20 Mostly Cloudy 46 8 36 2 66 66 WSW 9 15 29.94 1014 30 48 N/A
3:50 pm 15:50 Mostly Sunny 46 8 32 0 57 57 W 10 17 29.97 1015 30 48 N/A
4:20 pm 16:20 Mostly Clear 46 8 32 0 57 57 W 10 17 30.00 1016 30 48 N/A
4:50 pm 16:50 Mostly Clear 45 7 34 1 66 66 W 8 13 30.03 1017 30 48 N/A
5:20 pm 17:20 Mostly Clear 45 7 32 0 61 61 W 6 9 30.03 1017 30 48 N/A
5:50 pm 17:50 Partly Cloudy 43 6 32 0 66 66 W 3 6 30.09 1019 30 48 N/A
6:20 pm 18:20 Mostly Clear 43 6 32 0 66 66 WSW 6 9 30.09 1019 30 48 N/A
6:50 pm 18:50 Mostly Clear 43 6 32 0 66 66 WSW 8 13 30.12 1020 30 48 N/A
7:20 pm 19:20 Mostly Clear 41 5 32 0 70 70 WSW 8 13 30.12 1020 30 48 N/A
7:50 pm 19:50 Mostly Clear 41 5 32 0 70 70 WSW 7 11 30.15 1021 30 48 N/A
8:20 pm 20:20 Mostly Clear 39 4 32 0 75 75 SW 6 9 30.15 1021 7 11 N/A
8:50 pm 20:50 Mostly Clear 39 4 34 1 81 81 SW 7 11 30.15 1021 7 11 N/A
9:20 pm 21:20 Partly Cloudy 39 4 32 0 75 75 SW 7 11 30.18 1022 30 48 N/A
9:50 pm 21:50 Mostly Clear 37 3 32 0 81 81 SW 7 11 30.18 1022 7 11 N/A

Powered by AerisWeather